Sacramento, CA
on Tuesday, April 17, 2012

Tuesday
Previous Day Next Day
Daily Summary
 ActualAverageRecord
Temperature
Mean Temperature - -  
Max Temperature 72 °F 71 °F 90 °F (1954)
Min Temperature 47 °F 46 °F 34 °F (1975)
Degree Days
Heating Degree Days 5    
Month to date heating degree days 173  
Cooling Degree Days 0    
Month to date cooling degree days 0  
Year to date cooling degree days 0  
Growing Degree Days10 (Base - )  
Moisture
Dew Point 48 °F   
Average Humidity 64    
Maximum Humidity 93    
Minimum Humidity 34    
Precipitation
Precipitation 0.00 in 0.04 in 0.88 in (2000)
Month to date precipitation 1.85 0.74  
Year to date precipitation 9.26 10.60  
Wind
Wind Speed 5 mph   
Max Wind Speed 14 mph   
Max Gust Speed 20 mph   
Visibility 10 miles   
Events     

Key: T is trace of precipitation, MM is missing value
Source: NWS Daily Summary
Time(PDT)TemperatureDew PointHumidity Pressure Visibility Wind DirectionWind SpeedGust SpeedPrecipitationEvents Conditions
12:53 AM 52.0 °F 48.0 °F 86% 30.15 in 10.0 miles SSE 3.5 mph - N/A   Clear
1:53 AM 51.1 °F 46.9 °F 86% 30.15 in 10.0 miles SSE 3.5 mph - N/A   Clear
2:53 AM 50.0 °F 46.9 °F 89% 30.14 in 10.0 miles ESE 5.8 mph - N/A   Clear
3:53 AM 50.0 °F 46.9 °F 89% 30.15 in 10.0 miles SSE 3.5 mph - N/A   Clear
4:53 AM 48.9 °F 46.0 °F 90% 30.14 in 10.0 miles Calm Calm - N/A   Clear
5:53 AM 48.9 °F 46.0 °F 90% 30.13 in 10.0 miles ESE 4.6 mph - N/A   Clear
6:53 AM 48.0 °F 46.0 °F 93% 30.14 in 10.0 miles SE 3.5 mph - N/A   Clear
7:53 AM 53.1 °F 48.9 °F 86% 30.15 in 10.0 miles Calm Calm - N/A   Clear
8:53 AM 55.9 °F 50.0 °F 80% 30.15 in 10.0 miles Variable 3.5 mph - N/A   Clear
9:53 AM 62.1 °F 51.1 °F 67% 30.16 in 10.0 miles SW 4.6 mph - N/A   Clear
10:53 AM 66.0 °F 50.0 °F 56% 30.15 in 10.0 miles Calm Calm - N/A   Clear
11:53 AM 68.0 °F 50.0 °F 52% 30.14 in 10.0 miles South 6.9 mph - N/A   Clear
12:53 PM 68.0 °F 55.0 °F 63% 30.11 in 10.0 miles SW 9.2 mph - N/A   Clear
1:53 PM 68.0 °F 53.1 °F 59% 30.09 in 10.0 miles SW 11.5 mph 16.1 mph N/A   Clear
2:53 PM 72.0 °F 41.0 °F 33% 30.08 in 10.0 miles SSW 12.7 mph - N/A   Clear
3:53 PM 71.1 °F 41.0 °F 34% 30.07 in 10.0 miles SSW 8.1 mph - N/A   Clear
4:53 PM 68.0 °F 52.0 °F 56% 30.05 in 10.0 miles SSW 11.5 mph 17.3 mph N/A   Clear
5:53 PM 66.0 °F 48.9 °F 54% 30.04 in 10.0 miles SW 12.7 mph - N/A   Clear
6:53 PM 63.0 °F 46.9 °F 56% 30.04 in 10.0 miles SSW 8.1 mph 18.4 mph N/A   Clear
7:53 PM 61.0 °F 48.9 °F 64% 30.04 in 10.0 miles SW 10.4 mph - N/A   Clear
8:53 PM 57.9 °F 42.1 °F 56% 30.05 in 10.0 miles SW 15.0 mph 23.0 mph N/A   Clear
9:53 PM 55.0 °F 46.9 °F 74% 30.08 in 10.0 miles SSW 8.1 mph 16.1 mph N/A   Clear
10:53 PM 54.0 °F 46.9 °F 77% 30.08 in 10.0 miles SW 9.2 mph - N/A   Partly Cloudy
11:53 PM 53.1 °F 48.0 °F 83% 30.10 in 10.0 miles South 4.6 mph - N/A   Partly Cloudy

Astronomy

Sunrise: 06:26 AM (PDT) Moon Rise: 04:23 AM (PDT) 4 / 17
Sunset: 07:45 PM (PDT) Moon Set: 04:45 PM (PDT) 4 / 17
Moon Phase
Apr. 17 Apr. 21 Apr. 29 May. 05 May. 12


Powered by Weather Underground, Inc.